Location: ????????
(54.6123°N, 39.2099°E)
Time: 14:31:27
(UTC+00:00)

COBE Rocket - Pass Details

Date: 19 May 2025
Orbit: 676 x 772 km, 97.1° (Epoch: 20 June)

Event Time Altitude Azimuth Distance (km) Brightness Sun altitude
Rises 20:09:57 0° 12° (NNE) 3,223 8.4 -13.9°
Reaches altitude 10° 20:12:15 10° 11° (N) 2,305 7.5 -14.0°
Maximum altitude 20:17:21 76° 287° (WNW) 798 4.1 -14.2°
Enters shadow 20:21:40 15° 203° (SSW) 2,003 5.7 -14.4°
